Regional Weather Roundup
Issued by NWS

Home | Current Version | Previous Version | Graphics & Text | Print | Product List | Glossary On
Versions: 1 2 3 4 5 6 7 8 9 10 11 12 13 14 15 16 17 18 19 20 21 22 23 24 25 26 27 28 29 30 31 32 33 34 35 36 37 38 39 40 41 42 43 44 45 46 47 48 49 50
050
ASUS45 KSLC 201610
RWRUT

UTAH REGIONAL WEATHER ROUNDUP
NATIONAL WEATHER SERVICE SALT LAKE CITY UT
900 AM MST FRI JAN 20 2017

UTZ001>011-023>025-201700-

NORTHERN UTAH

CITY           SKY/WX    TMP DP  RH WIND       PRES   REMARKS
BRIGHAM CITY     N/A     30  28  93 CALM      29.61F VSB 1/4
HILL AFB       SNOW      29  29  98 E6        29.59S VSB 1/2 WCI  23
LOGAN          SNOW      27  27 100 CALM      29.59F VSB 1/4
OGDEN          LGT SNOW  29  28  96 E3        29.59F VSB 1
SALT LAKE CITY LGT SNOW  31  31 100 E5        29.60F FOG     WCI  26
TOOELE VALLEY  FOG       28  28 100 E3        29.60F VSB<1/4
WENDOVER       CLOUDY    23  21  93 SW6       29.60F WCI  16
HEBER CITY     LGT SNOW  28  28 100 CALM      29.57S
WEST JORDAN    CLOUDY    31  31 100 CALM      29.60F

$$

UTZ011>015-024>027-201700-

CENTRAL/NORTHEAST UTAH

CITY           SKY/WX    TMP DP  RH WIND       PRES   REMARKS
PROVO AIRPORT  FOG       34  30  86 E3        29.62S VSB 3/4
MOAB/CANYONLAN CLOUDY    32  31  96 N3        29.64R
DELTA          MOSUNNY   27  27 100 S7        29.59F WCI  19
PRICE          CLOUDY    24  23  96 NE5       29.60S WCI  18
RICHFIELD      SUNNY     28  30 100 N3        29.63
ROOSEVELT      CLOUDY    19  16  86 CALM      29.68R FOG
VERNAL         LGT SNOW  18  15  88 CALM      29.65S FOG

$$

UTZ013>016-019>022-027-201700-

SOUTHERN UTAH

CITY           SKY/WX    TMP DP  RH WIND       PRES   REMARKS
BRYCE CANYON   FLURRIES  16  14  92 SE7       29.61F WCI   6
CEDAR CITY     CLOUDY    25  22  88 N5        29.58F WCI  19
MILFORD        MOSUNNY   26  23  88 S6        29.58F WCI  19
ST GEORGE      CLOUDY    37  34  87 CALM      29.66F
HANKSVILLE     CLOUDY    30  30 100 MISG      29.68S VSB<1/4
KANAB          CLOUDY    32  32 100 E2        29.71S
BLANDING       CLOUDY    29  29 100 S6        29.75S WCI  23

$$

REGIONAL REPORTS     COLORADO/ARIZONA

CITY           SKY/WX    TMP DP  RH WIND       PRES   REMARKS
CRAIG, CO      LGT SNOW  27  23  85 W7        29.58R FOG     WCI  19
GRAND JUNCTION SNOW      32  32 100 CALM      29.61S VSB 1/2
RIFLE, CO      LGT SNOW  31  30  96 CALM      29.59R FOG
MONTROSE, CO   CLOUDY    31  28  89 CALM      29.63R
CORTEZ, CO     LGT SNOW  31  28  89 S10       29.70R FOG     WCI  22
COLORADO CITY  CLOUDY    32  32 100 CALM      29.68S
PAGE, AZ       CLOUDY    36  27  69 NE3       29.68F
GRAND CANYON   CLOUDY    29  29 100 SW14G22   29.68S FOG     WCI  18
KINGMAN, AZ    CLOUDY    40  36  86 S6        29.67S
FLAGSTAFF, AZ  CLOUDY    27  27 100 SW16      29.70F WCI  15

$$

REGIONAL REPORTS    NEVADA/IDAHO/WYOMING

CITY           SKY/WX    TMP DP  RH WIND       PRES   REMARKS
LAS VEGAS, NV  CLOUDY    49  37  63 S9        29.60R
ELY, NY        CLOUDY    23  21  92 S12       29.49F WCI  12
ELKO, NV       MOCLDY    23  19  85 E7        29.45F WCI  15
POCATELLO, ID  PTCLDY    23  20  88 SW6       29.56F WCI  16
BURLEY, ID     CLEAR     28  23  81 E5        29.51F WCI  23
FORT BRIDGER,  PTSUNNY   19  17  90 SW9       29.58S WCI   8
EVANSTON, WY   CLOUDY    23  19  85 S3        29.55S
ROCK SPRINGS,  CLOUDY    18  15  88 NE5       29.55S FOG     WCI  11

$$




USA.gov is the U.S. government's official web portal to all federal, state and local government web resources and services.